Weather History for KOAJ - March, 2014

Change the Weather History Date:

Sunday, March 30, 2014

  Actual Average Record
Temperature  
Mean Temperature 56 °F -  
Max Temperature 66 °F 66 °F 84 °F (1998)
Min Temperature 46 °F 43 °F 30 °F (2007)
Degree Days  
Heating Degree Days 9    
Growing Degree Days 6 (Base 50)    
Moisture  
Dew Point 39 °F    
Average Humidity 63    
Maximum Humidity 94    
Minimum Humidity 41    
Precipitation  
Precipitation 0.00 in - - ()
Sea Level Pressure  
Sea Level Pressure 29.74 in    
Wind  
Wind Speed 11 mph (West)    
Max Wind Speed 18 mph    
Max Gust Speed 29 mph    
Visibility 10 miles    
Events      
Averages and records for this station are not official NWS values.
T = Trace of Precipitation, MM = Missing Value Source: NWS Daily Summary

Daily Weather History Graph

Daily Weather History Graph

Search for Another Location

Airport or City:

Trip Planner

Search our weather history database for the weather conditions in past years. The results will help you decide how hot, cold, wet, or windy it might be!

Date:

Astronomy

Mar. 30, 2014 Rise Set
Actual Time 7:00 AM EDT 7:30 PM EDT
Civil Twilight 6:34 AM EDT 7:55 PM EDT
Nautical Twilight 6:05 AM EDT 8:25 PM EDT
Astronomical Twilight 5:34 AM EDT 8:55 PM EDT
Moon 6:44 AM EDT (3/30) 7:39 PM EDT (3/30)
Length of Visible Light 13h 20m
Length of Day
12h 29m
Waning Crescent, 0% of the Moon is Illuminated
Mar 30
Waning Crescent
Mar 30
New
Apr 7
First Quarter
Apr 15
Full
Apr 22
Last Quarter

Hourly Weather History & Observations

Time (EDT) Temp. Windchill Dew Point Humidity Pressure Visibility Wind Dir Wind Speed Gust Speed Precip Events Conditions
12:15 AM 66.2 °F - 60.8 °F 83% 29.63 in 10.0 mi South 13.8 mph - N/A   Overcast
12:35 AM 64.4 °F - 60.8 °F 88% 29.62 in 10.0 mi South 12.7 mph - N/A   Mostly Cloudy
12:55 AM 64.4 °F - 60.8 °F 88% 29.62 in 10.0 mi SSW 8.1 mph - N/A   Partly Cloudy
1:15 AM 62.6 °F - 60.8 °F 94% 29.61 in 10.0 mi SSW 8.1 mph - N/A   Partly Cloudy
1:35 AM 62.6 °F - 59.0 °F 88% 29.61 in 10.0 mi SSW 9.2 mph - N/A   Partly Cloudy
1:55 AM 62.6 °F - 59.0 °F 88% 29.60 in 10.0 mi SSW 9.2 mph - N/A   Clear
2:15 AM 62.6 °F - 59.0 °F 88% 29.59 in 10.0 mi SSW 11.5 mph 18.4 mph N/A   Scattered Clouds
2:35 AM 62.6 °F - 57.2 °F 82% 29.58 in 10.0 mi SW 11.5 mph 16.1 mph N/A   Scattered Clouds
2:55 AM 62.6 °F - 57.2 °F 82% 29.58 in 10.0 mi WSW 11.5 mph 24.2 mph N/A   Scattered Clouds
3:15 AM 62.6 °F - 55.4 °F 77% 29.58 in 10.0 mi SW 13.8 mph 18.4 mph N/A   Partly Cloudy
3:35 AM 60.8 °F - 53.6 °F 77% 29.57 in 10.0 mi SW 13.8 mph 19.6 mph N/A   Clear
3:55 AM 60.8 °F - 53.6 °F 77% 29.57 in 10.0 mi SW 12.7 mph 19.6 mph N/A   Clear
4:15 AM 60.8 °F - 53.6 °F 77% 29.57 in 10.0 mi SW 11.5 mph 18.4 mph N/A   Clear
4:35 AM 59.0 °F - 53.6 °F 82% 29.57 in 10.0 mi SW 10.4 mph 16.1 mph N/A   Partly Cloudy
4:55 AM 59.0 °F - 51.8 °F 77% 29.57 in 10.0 mi SSW 10.4 mph 16.1 mph N/A   Scattered Clouds
5:15 AM 59.0 °F - 51.8 °F 77% 29.59 in 10.0 mi WSW 9.2 mph 21.9 mph N/A   Overcast
5:35 AM 57.2 °F - 51.8 °F 82% 29.60 in 10.0 mi WSW 11.5 mph - N/A   Overcast
5:55 AM 55.4 °F - 46.4 °F 72% 29.61 in 10.0 mi West 9.2 mph 18.4 mph N/A   Overcast
6:15 AM 53.6 °F - 46.4 °F 77% 29.62 in 10.0 mi West 8.1 mph - N/A   Mostly Cloudy
6:35 AM 53.6 °F - 42.8 °F 67% 29.64 in 10.0 mi West 10.4 mph 20.7 mph N/A   Mostly Cloudy
6:55 AM 51.8 °F - 41.0 °F 67% 29.65 in 10.0 mi West 8.1 mph 17.3 mph N/A   Overcast
7:15 AM 50.0 °F - 39.2 °F 66% 29.67 in 10.0 mi West 11.5 mph 21.9 mph N/A   Overcast
7:35 AM 48.2 °F - 39.2 °F 71% 29.68 in 10.0 mi West 6.9 mph 16.1 mph N/A   Overcast
7:55 AM 48.2 °F - 37.4 °F 66% 29.68 in 10.0 mi West 9.2 mph 16.1 mph N/A   Overcast
8:15 AM 48.2 °F - 39.2 °F 71% 29.70 in 10.0 mi West 9.2 mph - N/A   Overcast
8:35 AM 48.2 °F - 37.4 °F 66% 29.71 in 10.0 mi West 12.7 mph 18.4 mph N/A   Overcast
8:55 AM 46.4 °F 42.4 °F 33.8 °F 62% 29.72 in 10.0 mi West 8.1 mph 25.3 mph N/A   Overcast
9:15 AM 48.2 °F - 35.6 °F 62% 29.72 in 10.0 mi West 12.7 mph 21.9 mph N/A   Overcast
9:35 AM 48.2 °F - 33.8 °F 58% 29.73 in 10.0 mi West 18.4 mph 23.0 mph N/A   Overcast
9:55 AM 48.2 °F - 33.8 °F 58% 29.73 in 10.0 mi West 12.7 mph 20.7 mph N/A   Overcast
10:15 AM 48.2 °F - 33.8 °F 58% 29.74 in 10.0 mi West 8.1 mph 25.3 mph N/A   Overcast
10:35 AM 48.2 °F - 32.0 °F 54% 29.75 in 10.0 mi West 16.1 mph 23.0 mph N/A   Overcast
10:55 AM 50.0 °F - 33.8 °F 54% 29.75 in 10.0 mi WSW 15.0 mph 24.2 mph N/A   Overcast
11:15 AM 48.2 °F - 33.8 °F 58% 29.76 in 10.0 mi West 12.7 mph 28.8 mph N/A   Overcast
11:35 AM 48.2 °F - 32.0 °F 54% 29.77 in 10.0 mi West 10.4 mph 24.2 mph N/A   Overcast
11:55 AM 48.2 °F - 32.0 °F 54% 29.77 in 10.0 mi WNW 12.7 mph 24.2 mph N/A   Overcast
12:15 PM 46.4 °F 40.7 °F 32.0 °F 57% 29.78 in 10.0 mi West 12.7 mph 24.2 mph N/A   Overcast
12:35 PM 46.4 °F 41.1 °F 32.0 °F 57% 29.78 in 10.0 mi West 11.5 mph 21.9 mph N/A   Overcast
12:55 PM 46.4 °F 41.9 °F 32.0 °F 57% 29.78 in 10.0 mi WNW 9.2 mph 18.4 mph N/A   Overcast
1:15 PM 46.4 °F 40.7 °F 32.0 °F 57% 29.78 in 10.0 mi West 12.7 mph 21.9 mph N/A   Overcast
1:35 PM 46.4 °F 42.4 °F 32.0 °F 57% 29.78 in 10.0 mi West 8.1 mph 18.4 mph N/A   Overcast
1:55 PM 46.4 °F 42.9 °F 33.8 °F 62% 29.78 in 10.0 mi West 6.9 mph 19.6 mph N/A   Overcast
2:15 PM 48.2 °F - 33.8 °F 58% 29.77 in 10.0 mi West 10.4 mph 18.4 mph N/A   Overcast
2:35 PM 48.2 °F - 33.8 °F 58% 29.77 in 10.0 mi West 12.7 mph 20.7 mph N/A   Overcast
2:55 PM 48.2 °F - 33.8 °F 58% 29.78 in 10.0 mi West 11.5 mph 17.3 mph N/A   Overcast
3:15 PM 48.2 °F - 33.8 °F 58% 29.78 in 10.0 mi WNW 9.2 mph 17.3 mph N/A   Overcast
3:35 PM 48.2 °F - 33.8 °F 58% 29.78 in 10.0 mi WNW 9.2 mph 19.6 mph N/A   Overcast
3:55 PM 48.2 °F - 33.8 °F 58% 29.77 in 10.0 mi NW 8.1 mph 16.1 mph N/A   Overcast
4:15 PM 48.2 °F - 33.8 °F 58% 29.77 in 10.0 mi West 6.9 mph 17.3 mph N/A   Overcast
4:35 PM 48.2 °F - 33.8 °F 58% 29.77 in 10.0 mi West 10.4 mph 19.6 mph N/A   Overcast
4:55 PM 50.0 °F - 33.8 °F 54% 29.78 in 10.0 mi WNW 8.1 mph 17.3 mph N/A   Overcast
5:15 PM 50.0 °F - 33.8 °F 54% 29.79 in 10.0 mi WNW 8.1 mph - N/A   Overcast
5:35 PM 50.0 °F - 33.8 °F 54% 29.79 in 10.0 mi West 5.8 mph - N/A   Overcast
5:55 PM 50.0 °F - 33.8 °F 54% 29.80 in 10.0 mi WNW 4.6 mph - N/A   Overcast
6:15 PM 51.8 °F - 33.8 °F 50% 29.80 in 10.0 mi WNW 6.9 mph - N/A   Overcast
6:35 PM 51.8 °F - 33.8 °F 50% 29.81 in 10.0 mi WNW 9.2 mph - N/A   Overcast
6:55 PM 51.8 °F - 33.8 °F 50% 29.82 in 10.0 mi WNW 8.1 mph - N/A   Overcast
7:15 PM 51.8 °F - 33.8 °F 50% 29.83 in 10.0 mi WNW 8.1 mph - N/A   Overcast
7:35 PM 50.0 °F - 33.8 °F 54% 29.84 in 10.0 mi West 4.6 mph - N/A   Overcast
7:55 PM 50.0 °F - 33.8 °F 54% 29.85 in 10.0 mi West 5.8 mph - N/A   Overcast
8:15 PM 50.0 °F - 33.8 °F 54% 29.86 in 10.0 mi West 6.9 mph - N/A   Overcast
8:35 PM 50.0 °F - 33.8 °F 54% 29.87 in 10.0 mi WNW 8.1 mph - N/A   Overcast
8:55 PM 51.8 °F - 33.8 °F 50% 29.89 in 10.0 mi WNW 8.1 mph 21.9 mph N/A   Overcast
9:15 PM 51.8 °F - 33.8 °F 50% 29.89 in 10.0 mi WNW 11.5 mph 19.6 mph N/A   Overcast
9:35 PM 51.8 °F - 32.0 °F 47% 29.90 in 10.0 mi WNW 8.1 mph 16.1 mph N/A   Overcast
9:55 PM 51.8 °F - 30.2 °F 44% 29.90 in 10.0 mi NW 9.2 mph - N/A   Mostly Cloudy
10:15 PM 51.8 °F - 30.2 °F 44% 29.91 in 10.0 mi WNW 9.2 mph - N/A   Overcast
10:35 PM 51.8 °F - 30.2 °F 44% 29.91 in 10.0 mi WNW 5.8 mph 18.4 mph N/A   Overcast
10:55 PM 51.8 °F - 28.4 °F 41% 29.91 in 10.0 mi WNW 9.2 mph 16.1 mph N/A   Overcast
11:15 PM 51.8 °F - 28.4 °F 41% 29.92 in 10.0 mi West 8.1 mph - N/A   Overcast
11:35 PM 50.0 °F - 30.2 °F 47% 29.92 in 10.0 mi West 5.8 mph - N/A   Overcast
11:55 PM 48.2 °F - 30.2 °F 50% 29.92 in 10.0 mi West 8.1 mph - N/A   Scattered Clouds